QPF
0.00 0.00 0.00 0.00 0.00 0.00 0.00 0.00 0.00 0.01 0.01 0.01 0.01 0.01 0.01 0.02 0.06 0.05 0.02 0.01 0.00 0.00 0.00 0.00 0.00 0.00 0.00 0.00 0.00 0.00 0.00 0.00 0.01 0.03 0.04 0.05 0.04 0.02 0.02 0.01 0.00 0.00 0.00 0.00 0.00 0.00 0.00 0.00 0.00 0.00 0.00 0.00 0.00 0.00 0.00 0.00 0.00 0.00 0.00 0.00 0.01 0.04 0.37 0.58 0.43 0.48 0.65 0.65 0.59 0.43 0.25 0.33 0.43 0.30
0.00 0.00 0.00 0.00 0.01 0.01 0.01 0.01 0.01 0.01 0.01 0.01 0.01 0.02 0.02 0.01 0.01 0.01 0.01 0.01 0.00 0.00 0.00 0.00 0.00 0.00 0.00 0.00 0.00 0.00 0.00 0.00 0.01 0.03 0.03 0.03 0.03 0.02 0.02 0.01 0.01 0.00 0.00 0.00 0.00 0.00 0.00 0.00 0.00 0.00 0.00 0.00 0.00 0.00 0.00 0.00 0.00 0.00 0.01 0.01 0.02 0.03 0.24 0.41 0.60 0.55 0.46 0.65 0.78 0.58 0.42 0.38 0.36 0.37
0.00 0.00 0.00 0.01 0.01 0.01 0.01 0.01 0.00 0.00 0.01 0.01 0.01 0.01 0.00 0.00 0.00 0.01 0.02 0.03 0.02 0.01 0.00 0.00 0.00 0.00 0.00 0.00 0.00 0.00 0.00 0.00 0.00 0.01 0.02 0.02 0.02 0.01 0.01 0.01 0.01 0.00 0.00 0.00 0.00 0.00 0.00 0.00 0.00 0.00 0.00 0.00 0.00 0.00 0.00 0.00 0.00 0.00 0.01 0.02 0.05 0.05 0.07 0.28 0.42 0.63 0.53 0.49 0.64 0.64 0.59 0.47 0.40 0.38
0.00 0.00 0.01 0.01 0.01 0.01 0.00 0.00 0.01 0.01 0.01 0.01 0.01 0.01 0.01 0.01 0.01 0.02 0.02 0.03 0.02 0.00 0.00 0.00 0.00 0.00 0.00 0.00 0.00 0.00 0.00 0.00 0.00 0.01 0.02 0.02 0.02 0.02 0.02 0.01 0.01 0.00 0.00 0.00 0.00 0.00 0.00 0.00 0.00 0.00 0.00 0.00 0.00 0.00 0.00 0.00 0.00 0.00 0.00 0.04 0.06 0.10 0.07 0.08 0.28 0.41 0.57 0.63 0.50 0.52 0.53 0.50 0.48 0.44
0.00 0.00 0.01 0.00 0.00 0.00 0.00 0.01 0.01 0.01 0.01 0.01 0.01 0.01 0.01 0.01 0.01 0.01 0.01 0.02 0.02 0.01 0.00 0.00 0.00 0.00 0.00 0.00 0.00 0.00 0.00 0.00 0.00 0.01 0.01 0.02 0.03 0.03 0.02 0.01 0.01 0.00 0.00 0.00 0.00 0.00 0.00 0.00 0.00 0.00 0.00 0.00 0.00 0.00 0.00 0.00 0.00 0.00 0.00 0.02 0.10 0.10 0.11 0.11 0.07 0.33 0.50 0.56 0.61 0.51 0.59 0.51 0.46 0.45
0.00 0.00 0.00 0.00 0.00 0.00 0.00 0.00 0.00 0.01 0.01 0.01 0.01 0.01 0.01 0.01 0.01 0.00 0.01 0.02 0.02 0.02 0.00 0.00 0.00 0.00 0.00 0.00 0.00 0.00 0.00 0.00 0.00 0.01 0.01 0.02 0.02 0.03 0.02 0.01 0.01 0.00 0.00 0.00 0.00 0.00 0.00 0.00 0.00 0.00 0.00 0.00 0.00 0.00 0.00 0.00 0.00 0.00 0.00 0.00 0.03 0.12 0.15 0.14 0.09 0.10 0.33 0.50 0.36 0.35 0.37 0.42 0.37 0.34
0.00 0.00 0.00 0.00 0.00 0.00 0.00 0.00 0.00 0.01 0.01 0.01 0.02 0.01 0.01 0.01 0.01 0.01 0.01 0.02 0.03 0.02 0.01 0.00 0.00 0.00 0.00 0.00 0.00 0.00 0.00 0.00 0.00 0.01 0.01 0.01 0.01 0.01 0.01 0.01 0.01 0.00 0.00 0.00 0.00 0.00 0.00 0.00 0.00 0.00 0.00 0.00 0.00 0.00 0.00 0.00 0.00 0.00 0.00 0.00 0.02 0.06 0.19 0.22 0.22 0.06 0.15 0.25 0.35 0.25 0.19 0.27 0.30 0.27
0.00 0.00 0.00 0.00 0.00 0.00 0.01 0.00 0.00 0.01 0.01 0.02 0.02 0.01 0.01 0.01 0.01 0.01 0.01 0.01 0.02 0.03 0.01 0.00 0.00 0.00 0.00 0.00 0.00 0.00 0.00 0.00 0.00 0.01 0.01 0.01 0.01 0.01 0.01 0.01 0.01 0.00 0.00 0.00 0.00 0.00 0.00 0.00 0.00 0.00 0.00 0.00 0.00 0.00 0.00 0.00 0.00 0.00 0.00 0.00 0.01 0.04 0.09 0.31 0.16 0.23 0.12 0.14 0.20 0.25 0.18 0.15 0.20 0.28
0.00 0.00 0.00 0.00 0.00 0.00 0.01 0.00 0.00 0.01 0.01 0.01 0.02 0.02 0.01 0.01 0.01 0.01 0.01 0.02 0.02 0.02 0.01 0.00 0.00 0.00 0.00 0.00 0.00 0.00 0.00 0.00 0.00 0.00 0.01 0.01 0.01 0.01 0.01 0.01 0.01 0.00 0.00 0.00 0.00 0.00 0.00 0.00 0.00 0.00 0.00 0.00 0.00 0.00 0.00 0.00 0.00 0.00 0.00 0.00 0.00 0.02 0.05 0.10 0.17 0.28 0.16 0.12 0.15 0.14 0.14 0.10 0.16 0.24
0.00 0.00 0.00 0.00 0.00 0.00 0.01 0.01 0.01 0.01 0.01 0.02 0.03 0.03 0.02 0.02 0.02 0.03 0.03 0.01 0.01 0.01 0.01 0.01 0.01 0.00 0.00 0.00 0.00 0.00 0.00 0.01 0.01 0.00 0.01 0.01 0.02 0.02 0.02 0.02 0.01 0.01 0.00 0.00 0.00 0.00 0.00 0.00 0.00 0.00 0.00 0.00 0.00 0.00 0.00 0.00 0.00 0.00 0.00 0.00 0.00 0.00 0.02 0.05 0.08 0.20 0.24 0.16 0.10 0.11 0.14 0.09 0.14 0.16
0.00 0.00 0.00 0.00 0.00 0.00 0.01 0.01 0.02 0.03 0.03 0.03 0.03 0.04 0.06 0.05 0.02 0.01 0.01 0.02 0.02 0.01 0.02 0.02 0.01 0.02 0.01 0.01 0.01 0.01 0.02 0.02 0.02 0.01 0.01 0.01 0.01 0.02 0.02 0.02 0.01 0.01 0.01 0.00 0.00 0.00 0.00 0.00 0.00 0.00 0.00 0.00 0.00 0.00 0.00 0.00 0.00 0.00 0.00 0.00 0.00 0.00 0.00 0.03 0.05 0.10 0.21 0.18 0.19 0.11 0.12 0.18 0.10 0.14
0.00 0.00 0.00 0.01 0.01 0.01 0.01 0.02 0.03 0.02 0.03 0.05 0.10 0.10 0.03 0.02 0.02 0.03 0.03 0.03 0.03 0.01 0.01 0.02 0.03 0.05 0.04 0.03 0.03 0.03 0.06 0.06 0.04 0.03 0.02 0.01 0.01 0.01 0.02 0.02 0.02 0.01 0.01 0.00 0.00 0.00 0.00 0.00 0.00 0.00 0.00 0.00 0.00 0.00 0.00 0.00 0.00 0.00 0.00 0.00 0.00 0.01 0.00 0.01 0.04 0.08 0.15 0.16 0.19 0.15 0.15 0.22 0.14 0.09
0.00 0.00 0.00 0.01 0.01 0.01 0.01 0.01 0.01 0.02 0.03 0.06 0.09 0.03 0.02 0.04 0.05 0.04 0.04 0.04 0.04 0.02 0.01 0.02 0.06 0.09 0.09 0.09 0.10 0.10 0.10 0.07 0.02 0.01 0.02 0.02 0.02 0.02 0.03 0.03 0.03 0.03 0.02 0.01 0.00 0.00 0.00 0.00 0.00 0.00 0.00 0.00 0.00 0.00 0.00 0.00 0.00 0.00 0.00 0.00 0.00 0.01 0.02 0.01 0.01 0.05 0.10 0.12 0.12 0.13 0.15 0.31 0.25 0.21
0.00 0.00 0.00 0.01 0.01 0.01 0.01 0.01 0.01 0.02 0.03 0.06 0.03 0.03 0.05 0.06 0.05 0.04 0.04 0.04 0.05 0.04 0.02 0.03 0.08 0.09 0.09 0.11 0.09 0.08 0.07 0.06 0.05 0.03 0.02 0.02 0.02 0.03 0.04 0.04 0.04 0.03 0.03 0.02 0.01 0.00 0.00 0.00 0.00 0.00 0.00 0.00 0.00 0.00 0.00 0.00 0.00 0.00 0.00 0.00 0.00 0.01 0.02 0.03 0.01 0.04 0.07 0.16 0.10 0.16 0.14 0.21 0.34 0.31
0.00 0.00 0.00 0.01 0.01 0.01 0.01 0.01 0.01 0.02 0.05 0.04 0.02 0.03 0.04 0.05 0.07 0.07 0.06 0.03 0.07 0.05 0.03 0.06 0.11 0.12 0.10 0.10 0.09 0.08 0.07 0.07 0.06 0.02 0.01 0.01 0.02 0.03 0.04 0.04 0.03 0.03 0.03 0.02 0.01 0.00 0.00 0.00 0.00 0.01 0.00 0.00 0.00 0.00 0.00 0.00 0.00 0.00 0.00 0.00 0.00 0.01 0.02 0.03 0.03 0.01 0.02 0.04 0.12 0.16 0.19 0.18 0.20 0.31
0.00 0.00 0.00 0.01 0.01 0.01 0.01 0.01 0.01 0.04 0.06 0.02 0.02 0.03 0.05 0.06 0.08 0.08 0.09 0.07 0.06 0.08 0.05 0.04 0.10 0.14 0.11 0.09 0.08 0.06 0.05 0.04 0.04 0.02 0.01 0.01 0.02 0.03 0.03 0.02 0.02 0.02 0.02 0.02 0.01 0.01 0.00 0.00 0.00 0.01 0.01 0.00 0.00 0.00 0.00 0.00 0.00 0.00 0.00 0.00 0.00 0.01 0.02 0.03 0.04 0.03 0.01 0.04 0.05 0.13 0.20 0.18 0.16 0.17
0.00 0.00 0.00 0.00 0.01 0.01 0.01 0.01 0.03 0.09 0.03 0.01 0.02 0.04 0.06 0.08 0.08 0.10 0.11 0.08 0.06 0.08 0.08 0.05 0.05 0.06 0.08 0.07 0.06 0.04 0.03 0.02 0.02 0.01 0.01 0.01 0.01 0.02 0.02 0.02 0.01 0.03 0.03 0.02 0.01 0.01 0.01 0.01 0.01 0.01 0.01 0.01 0.00 0.00 0.00 0.00 0.00 0.00 0.00 0.00 0.00 0.01 0.02 0.04 0.04 0.05 0.03 0.05 0.05 0.09 0.16 0.23 0.20 0.13
0.00 0.00 0.00 0.01 0.01 0.01 0.01 0.02 0.07 0.08 0.03 0.01 0.02 0.04 0.06 0.07 0.07 0.09 0.10 0.12 0.09 0.06 0.06 0.06 0.05 0.04 0.04 0.05 0.04 0.02 0.02 0.02 0.01 0.01 0.01 0.01 0.01 0.02 0.02 0.02 0.02 0.03 0.06 0.04 0.02 0.01 0.01 0.01 0.01 0.01 0.01 0.01 0.01 0.00 0.00 0.00 0.00 0.00 0.00 0.00 0.00 0.01 0.02 0.03 0.05 0.06 0.07 0.04 0.05 0.06 0.13 0.22 0.26 0.20
0.00 0.00 0.00 0.01 0.02 0.01 0.02 0.05 0.07 0.08 0.03 0.01 0.01 0.03 0.05 0.06 0.07 0.07 0.09 0.12 0.12 0.10 0.06 0.06 0.05 0.03 0.03 0.03 0.03 0.03 0.01 0.01 0.01 0.01 0.01 0.01 0.01 0.02 0.02 0.03 0.03 0.04 0.05 0.05 0.04 0.03 0.02 0.02 0.01 0.01 0.01 0.01 0.01 0.00 0.00 0.00 0.00 0.00 0.00 0.00 0.00 0.01 0.01 0.02 0.04 0.07 0.09 0.07 0.06 0.04 0.06 0.20 0.23 0.34
0.00 0.00 0.00 0.01 0.01 0.02 0.03 0.05 0.06 0.07 0.02 0.01 0.01 0.02 0.03 0.04 0.05 0.08 0.11 0.13 0.14 0.14 0.10 0.08 0.07 0.05 0.06 0.07 0.07 0.06 0.03 0.01 0.01 0.03 0.04 0.04 0.06 0.07 0.07 0.06 0.05 0.04 0.05 0.05 0.04 0.02 0.02 0.02 0.02 0.02 0.02 0.01 0.02 0.01 0.00 0.00 0.00 0.00 0.00 0.00 0.00 0.01 0.02 0.02 0.03 0.05 0.09 0.12 0.08 0.05 0.05 0.09 0.21 0.26
0.00 0.00 0.00 0.01 0.01 0.03 0.02 0.04 0.05 0.05 0.02 0.01 0.01 0.02 0.02 0.03 0.04 0.07 0.10 0.11 0.13 0.13 0.12 0.11 0.10 0.09 0.10 0.10 0.08 0.06 0.04 0.03 0.02 0.02 0.02 0.02 0.04 0.07 0.07 0.06 0.05 0.04 0.05 0.06 0.04 0.02 0.02 0.02 0.02 0.03 0.02 0.02 0.02 0.02 0.01 0.00 0.00 0.00 0.00 0.00 0.00 0.00 0.01 0.02 0.02 0.04 0.07 0.11 0.12 0.09 0.08 0.11 0.11 0.22
0.00 0.00 0.00 0.00 0.01 0.03 0.02 0.02 0.04 0.04 0.02 0.01 0.01 0.02 0.02 0.03 0.04 0.06 0.08 0.10 0.11 0.12 0.11 0.15 0.15 0.13 0.14 0.12 0.09 0.06 0.05 0.05 0.06 0.05 0.04 0.05 0.05 0.07 0.06 0.04 0.04 0.04 0.07 0.08 0.05 0.03 0.03 0.03 0.03 0.03 0.03 0.03 0.02 0.02 0.01 0.00 0.00 0.00 0.00 0.00 0.00 0.00 0.01 0.02 0.02 0.03 0.05 0.09 0.12 0.13 0.14 0.11 0.09 0.13
0.00 0.00 0.00 0.00 0.01 0.02 0.01 0.01 0.03 0.03 0.03 0.01 0.02 0.02 0.02 0.03 0.04 0.05 0.07 0.09 0.11 0.11 0.10 0.13 0.15 0.14 0.14 0.12 0.10 0.08 0.08 0.07 0.08 0.09 0.09 0.07 0.04 0.05 0.09 0.10 0.09 0.09 0.10 0.09 0.07 0.05 0.06 0.05 0.05 0.04 0.05 0.04 0.02 0.02 0.01 0.01 0.00 0.00 0.00 0.00 0.00 0.00 0.01 0.02 0.03 0.03 0.04 0.07 0.11 0.14 0.15 0.16 0.13 0.14
0.00 0.00 0.00 0.00 0.01 0.01 0.01 0.01 0.02 0.03 0.02 0.02 0.01 0.02 0.03 0.04 0.05 0.05 0.06 0.07 0.10 0.11 0.11 0.12 0.12 0.11 0.08 0.09 0.09 0.08 0.08 0.10 0.11 0.10 0.11 0.10 0.08 0.06 0.06 0.10 0.10 0.08 0.08 0.09 0.09 0.06 0.06 0.06 0.06 0.05 0.04 0.02 0.02 0.02 0.01 0.01 0.01 0.00 0.00 0.00 0.00 0.00 0.00 0.01 0.03 0.03 0.06 0.06 0.10 0.13 0.18 0.18 0.19 0.16
0.00 0.00 0.00 0.00 0.01 0.01 0.01 0.01 0.01 0.02 0.02 0.02 0.02 0.03 0.04 0.05 0.04 0.03 0.03 0.04 0.05 0.06 0.07 0.07 0.07 0.06 0.05 0.05 0.04 0.05 0.07 0.09 0.11 0.13 0.14 0.14 0.14 0.13 0.10 0.07 0.08 0.10 0.10 0.10 0.08 0.06 0.08 0.09 0.08 0.06 0.04 0.03 0.02 0.01 0.01 0.01 0.00 0.01 0.00 0.00 0.00 0.00 0.00 0.01 0.02 0.04 0.05 0.07 0.08 0.13 0.17 0.19 0.20 0.18
0.00 0.00 0.01 0.01 0.01 0.01 0.01 0.01 0.01 0.01 0.01 0.01 0.02 0.03 0.03 0.02 0.02 0.01 0.01 0.02 0.02 0.03 0.03 0.03 0.03 0.03 0.02 0.03 0.03 0.04 0.05 0.07 0.07 0.10 0.13 0.15 0.17 0.18 0.18 0.17 0.15 0.12 0.12 0.12 0.09 0.06 0.07 0.10 0.08 0.07 0.05 0.03 0.02 0.02 0.02 0.01 0.01 0.01 0.01 0.00 0.00 0.00 0.00 0.00 0.01 0.03 0.05 0.06 0.08 0.13 0.18 0.19 0.20 0.19
0.00 0.00 0.01 0.01 0.01 0.01 0.01 0.01 0.01 0.01 0.01 0.01 0.02 0.02 0.01 0.01 0.01 0.01 0.01 0.01 0.01 0.01 0.01 0.02 0.02 0.01 0.01 0.02 0.02 0.03 0.04 0.05 0.05 0.06 0.08 0.12 0.15 0.17 0.18 0.20 0.21 0.20 0.19 0.16 0.12 0.08 0.07 0.09 0.10 0.10 0.07 0.04 0.02 0.02 0.02 0.02 0.01 0.01 0.01 0.01 0.00 0.00 0.00 0.00 0.01 0.02 0.04 0.06 0.07 0.15 0.17 0.19 0.20 0.19
0.00 0.01 0.01 0.01 0.01 0.01 0.01 0.00 0.00 0.00 0.01 0.01 0.01 0.01 0.00 0.00 0.00 0.00 0.00 0.00 0.00 0.00 0.00 0.01 0.01 0.01 0.00 0.01 0.01 0.02 0.02 0.03 0.04 0.04 0.06 0.08 0.11 0.14 0.15 0.17 0.17 0.15 0.14 0.14 0.14 0.13 0.11 0.09 0.07 0.06 0.08 0.09 0.07 0.05 0.03 0.02 0.02 0.01 0.01 0.01 0.01 0.00 0.00 0.00 0.00 0.01 0.03 0.05 0.07 0.10 0.17 0.24 0.21 0.20
0.00 0.01 0.01 0.01 0.00 0.00 0.00 0.00 0.00 0.00 0.00 0.00 0.00 0.00 0.00 0.00 0.00 0.00 0.00 0.00 0.00 0.00 0.00 0.00 0.01 0.00 0.00 0.00 0.01 0.01 0.01 0.02 0.02 0.03 0.04 0.05 0.06 0.09 0.11 0.12 0.11 0.11 0.11 0.11 0.12 0.13 0.14 0.13 0.12 0.09 0.06 0.06 0.08 0.08 0.05 0.03 0.02 0.02 0.01 0.01 0.01 0.01 0.00 0.00 0.00 0.01 0.02 0.04 0.07 0.09 0.12 0.21 0.28 0.23
0.00 0.00 0.00 0.00 0.00 0.00 0.00 0.00 0.00 0.00 0.00 0.00 0.00 0.00 0.00 0.00 0.00 0.00 0.00 0.00 0.00 0.00 0.00 0.00 0.00 0.00 0.00 0.00 0.00 0.00 0.00 0.01 0.01 0.03 0.04 0.04 0.04 0.04 0.05 0.06 0.06 0.06 0.07 0.08 0.08 0.09 0.10 0.12 0.13 0.13 0.11 0.09 0.08 0.08 0.09 0.09 0.08 0.04 0.02 0.01 0.01 0.01 0.01 0.00 0.00 0.00 0.01 0.02 0.04 0.06 0.09 0.12 0.24 0.28
0.00 0.00 0.00 0.00 0.00 0.00 0.00 0.00 0.00 0.00 0.00 0.00 0.00 0.00 0.00 0.00 0.00 0.00 0.00 0.00 0.00 0.00 0.00 0.00 0.00 0.00 0.00 0.00 0.00 0.00 0.00 0.01 0.01 0.02 0.02 0.03 0.03 0.03 0.03 0.03 0.04 0.04 0.04 0.05 0.05 0.06 0.06 0.07 0.10 0.11 0.10 0.12 0.11 0.09 0.08 0.07 0.08 0.09 0.07 0.03 0.01 0.01 0.01 0.01 0.00 0.00 0.01 0.01 0.02 0.04 0.06 0.09 0.14 0.25
0.00 0.00 0.00 0.00 0.00 0.00 0.00 0.00 0.00 0.00 0.00 0.00 0.00 0.00 0.00 0.00 0.00 0.00 0.00 0.00 0.00 0.00 0.00 0.00 0.00 0.00 0.00 0.00 0.00 0.00 0.00 0.00 0.01 0.01 0.01 0.02 0.02 0.02 0.02 0.02 0.03 0.03 0.03 0.03 0.03 0.03 0.04 0.05 0.06 0.07 0.08 0.09 0.09 0.10 0.10 0.09 0.08 0.08 0.08 0.07 0.05 0.02 0.01 0.01 0.00 0.00 0.01 0.01 0.02 0.03 0.06 0.07 0.08 0.14
0.00 0.00 0.00 0.00 0.00 0.00 0.00 0.00 0.00 0.00 0.00 0.00 0.00 0.00 0.00 0.00 0.00 0.00 0.00 0.00 0.00 0.00 0.00 0.00 0.00 0.00 0.00 0.00 0.00 0.00 0.00 0.00 0.00 0.01 0.01 0.01 0.01 0.01 0.02 0.02 0.02 0.02 0.02 0.02 0.02 0.03 0.03 0.03 0.04 0.06 0.06 0.06 0.06 0.07 0.08 0.09 0.09 0.08 0.07 0.06 0.05 0.06 0.05 0.02 0.01 0.00 0.01 0.01 0.02 0.02 0.04 0.05 0.06 0.06
0.00 0.00 0.00 0.00 0.00 0.00 0.00 0.00 0.00 0.00 0.00 0.00 0.00 0.00 0.00 0.00 0.00 0.00 0.00 0.00 0.00 0.00 0.00 0.00 0.00 0.00 0.00 0.00 0.00 0.00 0.00 0.00 0.00 0.00 0.00 0.00 0.00 0.01 0.01 0.01 0.01 0.01 0.01 0.02 0.02 0.02 0.02 0.02 0.02 0.03 0.05 0.04 0.05 0.05 0.06 0.07 0.08 0.08 0.08 0.08 0.06 0.06 0.06 0.05 0.04 0.02 0.00 0.00 0.01 0.02 0.03 0.04 0.05 0.06
0.00 0.00 0.00 0.00 0.00 0.00 0.00 0.00 0.00 0.00 0.00 0.00 0.00 0.00 0.00 0.00 0.00 0.00 0.00 0.00 0.00 0.00 0.00 0.00 0.00 0.00 0.00 0.00 0.00 0.00 0.00 0.00 0.00 0.00 0.00 0.00 0.00 0.00 0.01 0.01 0.01 0.01 0.01 0.01 0.01 0.01 0.01 0.01 0.01 0.01 0.02 0.03 0.03 0.04 0.05 0.06 0.07 0.08 0.07 0.07 0.08 0.06 0.06 0.06 0.05 0.05 0.03 0.01 0.01 0.01 0.02 0.03 0.04 0.05
0.00 0.00 0.00 0.00 0.00 0.00 0.00 0.00 0.00 0.00 0.00 0.00 0.00 0.00 0.00 0.00 0.00 0.00 0.00 0.00 0.00 0.00 0.00 0.00 0.00 0.00 0.00 0.00 0.00 0.00 0.00 0.00 0.00 0.00 0.00 0.00 0.00 0.00 0.00 0.00 0.01 0.01 0.01 0.01 0.01 0.01 0.01 0.01 0.01 0.01 0.01 0.02 0.02 0.03 0.05 0.05 0.06 0.08 0.08 0.08 0.08 0.08 0.08 0.08 0.07 0.06 0.05 0.03 0.02 0.01 0.01 0.02 0.03 0.04
0.00 0.00 0.00 0.00 0.00 0.00 0.00 0.00 0.00 0.00 0.00 0.00 0.00 0.00 0.00 0.00 0.00 0.00 0.00 0.00 0.00 0.00 0.00 0.00 0.00 0.00 0.00 0.00 0.00 0.00 0.00 0.00 0.00 0.00 0.00 0.00 0.00 0.00 0.00 0.00 0.00 0.00 0.00 0.00 0.00 0.01 0.01 0.01 0.01 0.01 0.01 0.01 0.02 0.02 0.04 0.04 0.04 0.06 0.07 0.08 0.09 0.08 0.08 0.08 0.08 0.07 0.06 0.05 0.04 0.02 0.02 0.01 0.02 0.03
0.00 0.00 0.00 0.00 0.00 0.00 0.00 0.00 0.00 0.00 0.00 0.00 0.00 0.00 0.00 0.00 0.00 0.00 0.00 0.00 0.00 0.00 0.00 0.00 0.00 0.00 0.00 0.00 0.00 0.00 0.00 0.00 0.00 0.00 0.00 0.00 0.00 0.00 0.00 0.00 0.00 0.00 0.00 0.00 0.00 0.00 0.00 0.01 0.01 0.01 0.01 0.01 0.01 0.01 0.02 0.02 0.02 0.04 0.04 0.06 0.08 0.09 0.07 0.07 0.07 0.07 0.08 0.09 0.08 0.07 0.05 0.04 0.03 0.04
0.00 0.00 0.00 0.00 0.00 0.00 0.00 0.00 0.00 0.00 0.00 0.00 0.00 0.00 0.00 0.00 0.00 0.00 0.00 0.00 0.00 0.00 0.00 0.00 0.00 0.00 0.00 0.00 0.00 0.00 0.00 0.00 0.00 0.00 0.00 0.00 0.00 0.00 0.00 0.00 0.00 0.00 0.00 0.00 0.00 0.00 0.00 0.00 0.00 0.01 0.01 0.01 0.01 0.01 0.02 0.02 0.02 0.02 0.02 0.03 0.04 0.06 0.06 0.06 0.07 0.07 0.07 0.09 0.11 0.11 0.10 0.08 0.07 0.08
0.00 0.00 0.00 0.00 0.00 0.00 0.00 0.00 0.00 0.00 0.00 0.00 0.00 0.00 0.00 0.00 0.00 0.00 0.00 0.00 0.00 0.00 0.00 0.00 0.00 0.00 0.00 0.00 0.00 0.00 0.00 0.00 0.00 0.00 0.00 0.00 0.00 0.00 0.00 0.00 0.00 0.00 0.00 0.00 0.00 0.00 0.00 0.00 0.00 0.00 0.01 0.01 0.01 0.01 0.02 0.01 0.01 0.02 0.02 0.03 0.03 0.03 0.04 0.05 0.06 0.06 0.07 0.07 0.09 0.09 0.10 0.09 0.09 0.11
0.00 0.00 0.00 0.00 0.00 0.00 0.00 0.00 0.00 0.00 0.00 0.00 0.00 0.00 0.00 0.00 0.00 0.00 0.00 0.00 0.00 0.00 0.00 0.00 0.00 0.00 0.00 0.00 0.00 0.00 0.00 0.00 0.00 0.00 0.00 0.00 0.00 0.00 0.00 0.00 0.00 0.00 0.00 0.00 0.00 0.00 0.00 0.00 0.00 0.00 0.01 0.01 0.01 0.01 0.02 0.01 0.01 0.01 0.02 0.03 0.04 0.03 0.03 0.04 0.05 0.06 0.06 0.07 0.07 0.08 0.08 0.09 0.09 0.08
0.00 0.00 0.00 0.00 0.00 0.00 0.00 0.00 0.00 0.00 0.00 0.00 0.00 0.00 0.00 0.00 0.00 0.00 0.00 0.00 0.00 0.00 0.00 0.00 0.00 0.00 0.00 0.00 0.00 0.00 0.00 0.00 0.00 0.00 0.00 0.00 0.00 0.00 0.00 0.00 0.00 0.00 0.00 0.00 0.00 0.00 0.00 0.00 0.00 0.00 0.00 0.01 0.01 0.01 0.01 0.01 0.01 0.01 0.01 0.01 0.03 0.05 0.05 0.05 0.05 0.05 0.06 0.07 0.07 0.07 0.08 0.10 0.10 0.10
0.00 0.00 0.00 0.00 0.00 0.00 0.00 0.00 0.00 0.00 0.00 0.00 0.00 0.00 0.00 0.00 0.00 0.00 0.00 0.00 0.00 0.00 0.00 0.00 0.00 0.00 0.00 0.00 0.00 0.00 0.00 0.00 0.00 0.00 0.00 0.00 0.00 0.00 0.00 0.00 0.00 0.00 0.00 0.00 0.00 0.00 0.00 0.00 0.00 0.00 0.00 0.01 0.01 0.02 0.01 0.01 0.01 0.01 0.01 0.01 0.01 0.03 0.06 0.06 0.06 0.05 0.04 0.04 0.05 0.05 0.05 0.05 0.05 0.04
0.00 0.00 0.00 0.00 0.00 0.00 0.00 0.00 0.00 0.00 0.00 0.00 0.00 0.00 0.00 0.00 0.00 0.00 0.00 0.00 0.00 0.00 0.00 0.00 0.00 0.00 0.00 0.00 0.00 0.00 0.00 0.00 0.00 0.00 0.00 0.00 0.00 0.00 0.00 0.00 0.00 0.00 0.00 0.00 0.00 0.00 0.00 0.00 0.00 0.00 0.00 0.00 0.01 0.01 0.02 0.01 0.01 0.01 0.02 0.02 0.02 0.02 0.03 0.05 0.06 0.07 0.06 0.05 0.04 0.04 0.05 0.06 0.07 0.06
0.00 0.00 0.00 0.00 0.00 0.00 0.00 0.00 0.00 0.00 0.00 0.00 0.00 0.00 0.00 0.00 0.00 0.00 0.00 0.00 0.00 0.00 0.00 0.00 0.00 0.00 0.00 0.00 0.00 0.00 0.00 0.00 0.00 0.00 0.00 0.00 0.00 0.00 0.00 0.00 0.00 0.00 0.00 0.00 0.00 0.00 0.00 0.00 0.00 0.00 0.00 0.00 0.01 0.01 0.01 0.02 0.02 0.02 0.01 0.02 0.03 0.02 0.02 0.03 0.04 0.05 0.06 0.07 0.07 0.07 0.06 0.04 0.03 0.02
MSLP
1014.52 1014.28 1014.08 1013.76 1013.20 1012.76 1012.48 1012.12 1011.88 1011.76 1011.72 1011.56 1011.24 1010.72 1009.80 1009.16 1008.80 1008.08 1007.40 1006.56 1005.68 1004.76 1004.88 1004.12 1003.04 1003.36 1003.00 1002.60 1002.08 1001.56 1001.04 1000.56 1000.36 1000.08 999.76 999.24 998.76 998.40 998.16 997.92 997.72 997.64 997.64 997.68 997.80 997.96 998.12 998.24 998.32 998.36 998.36 998.36 998.44 998.60 998.80 998.88 998.96 999.04 999.04 999.04 999.12 999.16 999.12 999.00 998.88 998.60 998.40 998.52 998.72 998.80 999.24 999.84 1000.36 1000.88
1014.32 1014.12 1013.88 1013.48 1013.00 1012.60 1012.36 1012.28 1012.20 1012.08 1011.80 1011.36 1010.84 1010.12 1009.48 1009.32 1009.12 1008.48 1008.00 1006.36 1006.08 1004.80 1004.32 1003.96 1002.92 1002.76 1002.68 1002.40 1001.96 1001.56 1000.80 1000.28 1000.08 999.72 999.28 999.00 998.60 998.20 997.92 997.60 997.40 997.28 997.28 997.32 997.40 997.52 997.68 997.80 997.92 997.96 998.00 998.00 998.04 998.16 998.36 998.52 998.60 998.68 998.72 998.80 998.88 998.88 998.80 998.60 998.32 997.96 997.48 997.44 997.52 997.64 998.28 999.08 999.68 1000.24
1014.24 1014.00 1013.60 1013.16 1012.84 1012.76 1012.56 1012.36 1012.24 1012.00 1011.56 1010.84 1010.24 1009.64 1009.36 1009.08 1008.80 1008.40 1007.88 1006.68 1005.04 1005.12 1004.04 1003.40 1003.16 1002.64 1002.36 1002.16 1001.64 1000.96 1000.36 999.80 999.56 999.20 998.72 998.36 998.08 997.80 997.48 997.20 997.00 996.88 996.88 996.88 997.00 997.12 997.24 997.36 997.48 997.56 997.60 997.64 997.64 997.76 997.96 998.16 998.28 998.36 998.44 998.52 998.64 998.56 998.48 998.24 997.84 997.16 996.32 995.52 995.24 995.40 996.36 997.80 998.80 999.68
1014.24 1013.88 1013.40 1013.04 1013.04 1012.84 1012.64 1012.32 1012.08 1011.76 1011.36 1011.00 1010.52 1010.04 1009.56 1009.08 1008.64 1008.12 1007.48 1006.64 1005.20 1005.04 1004.24 1003.40 1002.64 1002.48 1002.08 1001.72 1001.24 1000.48 999.80 999.24 999.04 998.72 998.32 997.80 997.52 997.28 996.96 996.64 996.52 996.52 996.52 996.52 996.56 996.68 996.80 996.96 997.08 997.20 997.28 997.28 997.28 997.36 997.56 997.80 998.00 998.16 998.24 998.36 998.36 998.32 998.24 997.92 997.52 996.92 996.00 994.88 992.36 993.32 994.92 996.24 997.24 998.92
1014.16 1013.68 1013.20 1013.04 1013.00 1012.88 1012.60 1012.24 1011.96 1011.64 1011.32 1010.96 1010.56 1010.04 1009.52 1008.92 1008.36 1007.96 1007.40 1006.72 1005.56 1004.60 1003.96 1003.36 1002.52 1001.96 1001.88 1001.20 1000.96 1000.28 999.52 998.88 998.48 998.28 997.84 997.36 997.00 996.68 996.40 996.20 996.08 996.12 996.16 996.16 996.16 996.28 996.40 996.56 996.72 996.80 996.92 996.96 996.96 997.00 997.20 997.48 997.72 997.92 998.08 998.16 998.12 998.08 998.00 997.68 997.40 996.96 996.24 995.76 994.24 993.92 994.32 995.52 996.92 998.20
1013.96 1013.44 1013.12 1013.08 1013.00 1012.76 1012.52 1012.16 1011.80 1011.44 1011.08 1010.72 1010.28 1009.80 1009.28 1008.68 1008.16 1007.72 1007.32 1006.56 1005.80 1004.64 1003.40 1002.96 1002.36 1001.76 1001.48 1000.80 1000.32 1000.16 999.36 998.64 998.24 997.84 997.28 996.68 996.32 996.08 995.92 995.84 995.72 995.72 995.76 995.76 995.80 995.88 996.00 996.16 996.28 996.40 996.52 996.60 996.68 996.72 996.92 997.16 997.40 997.60 997.80 997.88 997.92 997.84 997.72 997.56 997.32 997.00 996.48 996.24 995.72 995.28 995.64 995.76 996.84 998.24
1013.76 1013.28 1013.12 1013.08 1012.88 1012.64 1012.36 1011.96 1011.56 1011.20 1010.80 1010.32 1009.88 1009.36 1008.84 1008.32 1007.72 1007.16 1006.72 1006.24 1005.52 1004.68 1003.16 1002.60 1002.12 1001.44 1000.80 1000.64 999.80 999.64 999.24 998.52 998.08 997.52 996.68 996.16 995.76 995.60 995.52 995.44 995.32 995.32 995.40 995.40 995.40 995.48 995.60 995.76 995.88 996.00 996.16 996.28 996.40 996.48 996.64 996.88 997.08 997.36 997.52 997.60 997.68 997.64 997.56 997.44 997.28 997.00 996.52 996.36 996.24 996.04 996.16 996.68 997.08 997.88
1013.60 1013.20 1013.08 1012.96 1012.80 1012.52 1012.20 1011.76 1011.36 1010.88 1010.40 1009.88 1009.36 1008.84 1008.28 1007.76 1007.12 1006.52 1005.96 1005.56 1005.12 1004.20 1003.20 1002.00 1002.00 1001.00 1000.68 999.92 999.56 999.04 998.64 998.24 997.56 997.00 996.12 995.56 995.32 995.08 995.08 995.00 994.96 994.92 995.00 995.04 995.04 995.12 995.24 995.40 995.52 995.64 995.76 995.96 996.12 996.28 996.40 996.56 996.80 997.04 997.24 997.40 997.44 997.48 997.48 997.36 997.32 997.12 996.96 996.80 996.56 996.40 996.40 996.80 997.52 998.08
1013.56 1013.16 1013.04 1012.88 1012.68 1012.40 1012.08 1011.60 1011.12 1010.52 1010.00 1009.40 1008.84 1008.24 1007.60 1007.04 1006.40 1005.80 1005.32 1004.80 1004.40 1003.80 1002.96 1001.84 1001.36 1001.00 1000.32 999.60 998.80 998.40 998.20 997.40 997.00 996.24 995.60 995.08 994.84 994.72 994.60 994.60 994.52 994.56 994.64 994.68 994.72 994.76 994.92 995.08 995.20 995.32 995.44 995.64 995.84 996.00 996.12 996.32 996.56 996.76 996.96 997.12 997.28 997.32 997.32 997.36 997.24 997.16 997.08 997.04 996.88 996.84 996.72 996.96 997.52 998.12
1013.48 1013.20 1013.04 1012.84 1012.60 1012.24 1011.92 1011.40 1010.76 1010.12 1009.48 1008.76 1008.16 1007.56 1006.92 1006.32 1005.80 1005.32 1004.84 1004.36 1003.88 1003.48 1002.76 1002.08 1000.92 1000.48 1000.00 999.04 998.20 997.52 997.44 997.04 996.32 995.52 994.92 994.68 994.48 994.36 994.36 994.32 994.28 994.32 994.40 994.48 994.44 994.48 994.64 994.80 994.92 995.08 995.16 995.32 995.56 995.72 995.84 996.04 996.28 996.48 996.64 996.84 997.04 997.16 997.20 997.20 997.20 997.16 997.12 997.00 996.96 996.92 997.00 997.12 997.56 998.08
1013.40 1013.24 1013.08 1012.80 1012.48 1012.08 1011.64 1011.08 1010.36 1009.60 1008.96 1008.36 1007.72 1007.04 1006.40 1006.00 1005.64 1005.12 1004.52 1003.96 1003.48 1003.00 1002.40 1001.56 1000.96 1000.08 999.32 998.96 997.72 996.52 996.40 996.00 995.56 994.92 994.36 994.12 994.00 994.00 994.00 994.00 994.08 994.08 994.12 994.16 994.16 994.16 994.32 994.48 994.68 994.80 994.92 995.08 995.24 995.48 995.60 995.76 995.96 996.20 996.40 996.56 996.76 996.92 997.04 997.12 997.12 997.08 997.12 997.00 996.92 996.96 996.96 997.20 997.44 997.88
1013.48 1013.32 1013.12 1012.80 1012.36 1011.88 1011.24 1010.48 1009.76 1009.16 1008.60 1007.88 1007.16 1006.60 1006.32 1005.92 1005.40 1004.68 1004.04 1003.64 1003.28 1002.84 1002.16 1001.48 1000.60 999.92 999.16 998.12 997.40 996.16 995.40 995.04 994.36 994.12 993.96 993.64 993.52 993.64 993.76 993.76 993.72 993.88 994.00 994.04 994.04 994.04 994.16 994.32 994.44 994.56 994.72 994.80 994.96 995.16 995.36 995.52 995.72 995.92 996.16 996.36 996.56 996.68 996.84 996.96 996.96 997.00 996.96 997.00 996.84 996.92 997.04 997.20 997.52 997.92
1013.52 1013.32 1013.08 1012.72 1012.24 1011.52 1010.80 1010.08 1009.40 1008.72 1008.04 1007.40 1006.84 1006.48 1006.20 1005.64 1005.08 1004.48 1004.04 1003.68 1003.32 1002.68 1002.00 1001.16 1000.56 1000.00 999.20 998.16 997.04 995.80 994.44 993.80 993.48 993.24 993.40 993.28 993.12 993.16 993.40 993.48 993.56 993.60 993.72 993.84 993.92 993.96 994.04 994.20 994.32 994.44 994.56 994.60 994.76 994.92 995.08 995.28 995.48 995.68 995.92 996.16 996.40 996.52 996.64 996.76 996.84 996.88 996.88 996.84 996.80 996.68 996.84 997.16 997.60 998.00
1013.56 1013.32 1013.08 1012.72 1012.12 1011.52 1010.80 1010.04 1009.24 1008.44 1007.72 1007.16 1006.88 1006.48 1006.04 1005.52 1005.04 1004.60 1004.08 1003.68 1003.28 1002.68 1001.96 1001.32 1000.80 1000.16 999.16 998.08 996.92 995.80 994.56 993.96 993.32 993.00 992.92 992.84 992.88 993.12 993.32 993.32 993.28 993.36 993.48 993.64 993.72 993.72 993.88 994.00 994.16 994.24 994.32 994.32 994.56 994.76 995.00 995.08 995.28 995.48 995.72 996.00 996.24 996.40 996.52 996.60 996.68 996.76 996.84 996.92 996.84 996.64 996.72 997.00 997.36 997.80
1013.60 1013.32 1013.12 1012.80 1012.20 1011.60 1010.88 1010.00 1009.04 1008.16 1007.60 1007.24 1006.80 1006.28 1005.84 1005.44 1005.12 1004.68 1004.16 1003.68 1003.40 1002.96 1002.32 1001.52 1001.00 1000.40 999.44 998.12 997.00 996.04 995.20 994.44 993.88 993.04 992.60 992.60 992.80 992.96 993.08 993.08 992.96 993.08 993.16 993.44 993.52 993.60 993.72 993.84 993.96 994.12 994.12 994.20 994.36 994.52 994.64 994.80 995.04 995.28 995.56 995.84 996.12 996.28 996.40 996.52 996.64 996.68 996.80 996.92 997.08 996.76 996.72 996.88 997.20 997.64
1013.88 1013.48 1013.20 1012.80 1012.24 1011.64 1010.92 1009.88 1008.84 1008.12 1007.72 1007.28 1006.72 1006.28 1005.84 1005.44 1005.00 1004.64 1004.36 1003.96 1003.60 1003.12 1002.48 1001.56 1000.88 1000.48 999.44 998.16 997.52 996.56 995.80 995.20 994.48 993.52 992.72 992.48 992.56 992.72 992.80 992.64 992.40 992.52 992.88 993.20 993.52 993.56 993.68 993.72 993.76 993.96 994.00 994.04 994.12 994.28 994.40 994.60 994.76 995.00 995.28 995.60 995.92 996.12 996.28 996.40 996.56 996.72 996.76 996.92 997.12 997.08 996.80 996.72 996.84 997.52
1014.12 1013.72 1013.36 1012.84 1012.20 1011.52 1010.60 1009.64 1008.72 1007.92 1007.68 1007.40 1006.84 1006.40 1006.00 1005.56 1005.12 1004.60 1004.24 1004.04 1003.80 1003.24 1002.36 1001.64 1001.04 1000.56 999.72 998.76 997.68 997.04 996.20 995.52 994.92 993.72 992.84 992.44 992.48 992.48 992.56 992.36 992.28 992.60 992.76 992.96 993.32 993.44 993.60 993.56 993.60 993.72 993.84 993.96 994.04 994.16 994.28 994.36 994.52 994.80 995.12 995.48 995.76 995.96 996.12 996.24 996.40 996.60 996.76 996.88 997.04 997.24 996.96 996.64 996.64 997.16
1014.28 1014.00 1013.64 1013.00 1012.24 1011.28 1010.52 1009.52 1008.52 1007.56 1007.88 1007.48 1007.12 1006.56 1006.04 1005.60 1005.12 1004.76 1004.48 1004.16 1003.76 1003.16 1002.48 1001.88 1001.16 1000.28 999.84 999.16 998.20 997.24 996.48 995.68 994.84 993.68 992.56 992.32 992.36 992.44 992.40 992.28 992.20 992.48 992.68 992.72 992.96 993.20 993.48 993.44 993.48 993.60 993.72 993.88 994.00 994.08 994.08 994.20 994.40 994.64 994.92 995.28 995.56 995.80 995.96 996.12 996.28 996.44 996.64 996.80 996.96 997.16 997.08 996.72 996.64 996.84
1014.52 1014.12 1013.72 1013.16 1012.32 1011.32 1010.48 1009.48 1008.24 1007.56 1007.80 1007.64 1007.24 1006.72 1006.16 1005.68 1005.20 1004.88 1004.60 1004.08 1003.60 1003.04 1002.52 1002.04 1001.44 1000.72 1000.12 999.44 998.60 997.52 996.28 995.44 994.68 993.96 992.92 992.20 992.08 992.20 992.36 992.44 992.52 992.64 992.72 992.72 992.80 992.76 993.16 993.36 993.36 993.56 993.68 993.84 993.92 994.08 994.12 994.16 994.28 994.48 994.76 995.08 995.40 995.64 995.84 996.04 996.16 996.36 996.52 996.68 996.84 997.04 997.12 996.72 996.52 996.64
1014.68 1014.28 1013.80 1013.08 1012.20 1011.44 1010.44 1009.40 1008.36 1007.68 1007.96 1007.92 1007.48 1006.84 1006.32 1005.72 1005.20 1004.96 1004.80 1004.28 1003.52 1002.88 1002.36 1001.84 1001.28 1000.60 999.92 999.20 998.44 997.56 996.72 995.68 994.64 993.40 992.68 992.44 992.44 992.20 992.28 992.16 992.48 992.56 992.76 992.84 992.92 992.88 993.24 993.32 993.20 993.64 993.84 993.88 993.92 994.04 994.12 994.12 994.20 994.40 994.60 994.88 995.20 995.48 995.72 995.92 996.12 996.28 996.48 996.60 996.76 996.96 997.00 996.72 996.36 996.36
1014.80 1014.40 1013.80 1013.08 1012.32 1011.40 1010.44 1009.60 1008.68 1007.96 1008.08 1008.28 1007.72 1007.12 1006.64 1006.12 1005.64 1005.16 1004.68 1004.24 1003.56 1002.64 1001.92 1001.20 1000.60 1000.04 999.48 998.80 998.08 997.28 996.40 995.56 994.68 993.56 992.92 993.40 993.72 992.28 992.00 992.12 992.32 992.48 992.76 992.88 992.92 992.72 993.08 993.32 993.28 993.68 993.92 993.96 993.96 994.04 994.08 994.08 994.12 994.28 994.48 994.76 995.04 995.32 995.56 995.76 995.96 996.20 996.40 996.60 996.80 996.92 997.00 996.76 996.36 996.16
1015.00 1014.48 1013.80 1013.08 1012.40 1011.40 1010.56 1009.80 1009.12 1008.36 1008.32 1008.48 1008.04 1007.36 1006.92 1006.32 1005.88 1005.48 1004.96 1004.24 1003.44 1002.92 1002.32 1001.48 1000.80 1000.08 999.32 998.48 997.64 996.96 996.36 995.76 995.00 994.68 994.96 994.92 993.84 992.24 992.00 991.92 992.24 992.60 992.76 992.96 993.00 992.72 992.96 993.32 993.36 993.64 994.04 994.04 994.08 994.08 994.08 994.12 994.16 994.24 994.40 994.64 994.92 995.16 995.40 995.60 995.80 996.04 996.28 996.48 996.64 996.84 996.96 997.00 996.64 996.16
1015.32 1014.64 1013.96 1013.16 1012.44 1011.52 1010.76 1010.16 1009.56 1008.84 1008.56 1008.72 1008.36 1007.76 1007.28 1006.80 1006.40 1006.32 1005.92 1005.04 1003.80 1002.72 1001.84 1001.00 1000.40 999.68 999.12 998.64 998.16 997.60 997.16 996.48 995.80 995.56 995.52 995.12 994.64 994.08 993.24 992.40 992.36 992.52 992.76 992.96 993.00 992.64 993.04 993.16 993.28 993.20 993.72 994.08 994.12 994.16 994.16 994.12 994.16 994.24 994.36 994.60 994.88 995.08 995.28 995.52 995.68 995.92 996.12 996.28 996.44 996.64 996.84 996.96 996.88 996.60
1015.44 1014.96 1014.24 1013.40 1012.64 1011.56 1011.04 1010.60 1010.12 1009.40 1009.00 1008.92 1008.80 1008.08 1007.68 1007.20 1006.84 1006.96 1006.68 1005.96 1005.08 1004.44 1003.52 1002.52 1001.84 1001.28 1000.56 999.72 999.00 998.32 997.40 996.56 996.32 996.16 995.92 995.60 995.24 994.88 994.32 993.44 992.72 992.84 993.08 993.04 993.00 992.68 992.84 992.88 993.08 993.04 992.92 993.04 993.76 994.16 994.28 994.24 994.24 994.24 994.36 994.52 994.84 995.00 995.24 995.48 995.72 995.84 996.04 996.16 996.28 996.44 996.64 996.80 996.88 996.88
1016.04 1015.36 1014.68 1013.80 1012.88 1011.96 1011.48 1011.08 1010.64 1010.00 1009.60 1009.28 1009.16 1008.56 1008.24 1007.92 1007.64 1007.48 1007.00 1006.24 1005.48 1004.76 1003.80 1003.00 1002.20 1001.52 1000.88 1000.16 999.48 998.68 997.92 997.32 996.72 996.40 996.16 995.88 995.52 995.24 994.88 994.52 993.80 993.32 993.32 993.20 992.96 992.76 992.72 992.92 993.00 993.20 993.12 993.00 993.36 993.84 994.24 994.28 994.32 994.28 994.36 994.40 994.68 994.96 995.20 995.48 995.72 995.92 996.04 996.16 996.24 996.36 996.48 996.68 996.80 996.76
1016.28 1015.84 1015.04 1014.20 1013.24 1012.48 1012.04 1011.68 1011.28 1010.68 1010.12 1009.80 1009.44 1009.04 1008.76 1008.36 1007.84 1007.88 1007.56 1006.88 1006.04 1005.08 1004.24 1003.64 1003.00 1002.28 1001.52 1000.84 1000.08 999.36 998.72 998.16 997.60 997.12 996.64 996.12 995.64 995.28 995.12 994.92 994.52 993.88 993.64 993.28 993.00 992.88 992.72 992.96 993.04 993.04 993.08 993.08 993.60 993.56 993.92 994.32 994.44 994.44 994.44 994.48 994.52 994.80 995.00 995.32 995.64 995.88 996.04 996.16 996.28 996.40 996.48 996.56 996.64 996.60
1016.48 1016.04 1015.24 1014.48 1013.68 1013.12 1012.60 1012.32 1011.96 1011.44 1010.72 1010.44 1009.96 1009.56 1009.12 1008.84 1008.40 1008.12 1007.72 1007.12 1006.28 1005.44 1004.96 1004.32 1003.76 1003.20 1002.76 1002.16 1001.48 1000.76 999.96 999.16 998.56 998.00 997.32 996.76 996.16 995.60 995.04 994.72 994.56 994.40 994.08 993.60 993.24 993.04 992.88 993.08 993.28 993.00 992.96 993.04 993.16 993.68 993.68 993.96 994.32 994.52 994.48 994.60 994.68 994.88 995.08 995.20 995.48 995.68 995.96 996.16 996.32 996.52 996.60 996.72 996.76 996.76
1016.68 1016.12 1015.36 1014.72 1014.16 1013.72 1013.20 1013.04 1012.76 1012.44 1011.64 1011.12 1010.60 1010.20 1009.92 1009.52 1009.04 1008.56 1008.04 1007.40 1006.88 1006.24 1005.40 1004.76 1004.56 1004.44 1004.12 1003.56 1002.68 1001.92 1001.28 1000.40 999.40 998.68 998.00 997.32 996.60 996.04 995.48 995.08 994.96 994.76 994.40 994.08 993.76 993.56 993.40 993.36 993.36 993.36 993.20 993.00 993.04 993.20 993.60 994.08 994.16 994.28 994.44 994.80 994.80 994.92 995.08 995.20 995.40 995.60 995.80 996.12 996.36 996.52 996.80 996.88 996.92 996.96
1016.68 1016.08 1015.56 1015.12 1014.80 1014.40 1013.88 1013.80 1013.60 1013.32 1012.44 1011.68 1011.28 1010.96 1010.76 1010.44 1009.76 1009.20 1008.80 1008.44 1007.60 1006.88 1006.68 1006.68 1006.40 1005.80 1005.24 1004.76 1004.16 1003.20 1002.08 1000.88 999.80 998.76 998.08 997.48 996.92 996.40 995.88 995.60 995.48 995.24 995.04 994.80 994.56 994.24 993.92 993.72 993.60 993.44 993.32 993.32 993.16 993.36 993.40 993.84 994.12 994.40 994.56 994.60 994.80 995.04 995.12 995.20 995.32 995.56 995.72 995.96 996.28 996.48 996.68 996.96 997.04 997.08
1016.96 1016.48 1016.08 1015.72 1015.48 1015.16 1014.52 1014.40 1014.08 1013.84 1013.32 1012.88 1012.36 1011.80 1011.44 1011.12 1010.68 1010.24 1009.80 1009.44 1008.88 1008.52 1008.16 1007.72 1007.32 1006.80 1006.04 1005.12 1004.36 1003.60 1002.56 1001.52 1000.92 1000.32 999.60 998.60 997.64 997.16 996.48 995.88 995.68 995.72 995.60 995.48 995.24 994.92 994.52 994.16 993.92 993.68 993.52 993.56 993.56 993.64 993.76 993.80 994.24 994.48 994.56 994.60 994.88 995.16 995.24 995.28 995.36 995.48 995.68 995.88 996.08 996.36 996.64 996.88 997.12 997.16
1017.56 1017.16 1016.72 1016.40 1016.16 1015.84 1015.36 1015.08 1014.84 1014.56 1014.08 1013.48 1012.84 1012.44 1012.12 1011.84 1011.40 1010.96 1010.60 1010.48 1010.24 1009.68 1009.08 1008.36 1007.80 1007.24 1006.56 1005.60 1004.40 1003.48 1002.84 1002.44 1002.12 1001.60 1001.04 1000.20 999.44 998.52 997.68 997.24 997.00 996.60 996.20 996.04 995.80 995.60 995.24 994.84 994.40 994.04 993.76 993.80 993.88 993.92 994.00 993.84 994.08 994.40 994.68 994.80 994.76 994.68 995.08 995.28 995.40 995.56 995.68 995.84 996.04 996.28 996.56 996.88 997.12 997.28
1017.88 1017.64 1017.32 1017.00 1016.72 1016.36 1015.88 1015.48 1015.12 1014.68 1014.36 1014.04 1013.64 1013.20 1012.80 1012.68 1012.24 1011.80 1011.44 1011.08 1010.72 1010.28 1009.92 1009.36 1008.56 1007.56 1006.56 1005.64 1005.08 1004.36 1003.72 1003.44 1003.04 1002.52 1001.88 1001.32 1000.76 999.84 998.76 998.20 998.60 998.36 997.28 996.56 996.12 995.84 995.56 995.36 994.96 994.44 994.20 994.08 994.00 994.12 994.16 994.16 994.32 994.48 994.68 994.84 994.88 995.00 995.16 995.24 995.40 995.60 995.72 995.84 996.08 996.36 996.52 996.72 997.04 997.28
1017.96 1017.68 1017.20 1016.80 1016.28 1016.12 1015.92 1015.60 1015.32 1015.08 1014.72 1014.40 1014.20 1013.80 1013.04 1013.00 1012.52 1012.08 1011.52 1011.24 1011.08 1010.76 1010.12 1009.52 1009.00 1008.32 1007.40 1006.60 1005.92 1005.20 1004.44 1004.16 1004.04 1003.44 1002.88 1002.28 1001.84 1000.96 1000.08 1000.20 1000.32 999.96 999.44 998.56 997.80 997.04 996.44 995.84 995.32 994.80 994.48 994.36 994.40 994.36 994.28 994.40 994.76 994.80 994.80 995.00 995.04 995.16 995.28 995.40 995.44 995.64 995.76 995.88 996.08 996.36 996.64 996.76 996.88 997.20
1018.16 1017.96 1017.72 1017.60 1017.44 1017.08 1016.72 1016.44 1016.16 1015.88 1015.64 1015.20 1014.68 1014.44 1013.92 1013.52 1013.04 1012.64 1012.40 1012.16 1012.00 1011.52 1011.04 1010.56 1009.76 1009.04 1008.28 1007.40 1006.80 1006.28 1005.88 1005.36 1004.84 1004.48 1004.00 1003.40 1002.72 1002.04 1001.52 1001.36 1001.36 1001.20 1000.72 1000.20 999.44 998.76 997.84 996.96 996.16 995.08 994.64 994.60 994.60 994.64 994.68 994.64 994.96 995.08 995.12 995.16 995.16 995.28 995.52 995.52 995.60 995.64 995.64 995.60 995.84 996.28 996.56 996.88 997.04 997.12
1018.32 1018.40 1018.12 1018.12 1018.00 1017.88 1017.64 1017.32 1017.08 1016.84 1016.40 1016.00 1015.60 1015.16 1014.80 1014.44 1014.00 1013.52 1013.04 1012.64 1012.48 1012.04 1011.56 1011.04 1010.56 1010.00 1009.32 1008.72 1008.04 1007.40 1007.04 1006.64 1006.08 1005.28 1004.76 1004.28 1003.64 1003.32 1002.88 1002.60 1002.44 1002.16 1001.72 1001.08 1000.44 999.88 999.24 998.48 997.80 996.48 995.00 994.64 994.64 994.92 995.08 995.20 995.20 995.32 995.36 995.44 995.48 995.56 995.64 995.72 995.72 995.72 995.68 995.72 995.88 996.12 996.52 996.80 997.08 997.24
1018.72 1018.88 1018.80 1018.56 1018.44 1018.36 1018.00 1017.88 1017.68 1017.36 1017.04 1016.72 1016.32 1015.84 1015.12 1014.76 1014.64 1014.28 1013.84 1013.48 1013.24 1012.68 1012.00 1011.56 1011.04 1010.68 1010.24 1009.80 1009.20 1008.56 1007.96 1007.52 1007.00 1006.44 1005.76 1005.28 1004.76 1004.32 1003.88 1003.80 1003.60 1003.32 1002.88 1002.24 1001.64 1001.08 1000.44 999.92 999.48 998.92 997.80 996.20 995.20 995.08 995.20 995.56 995.72 995.68 995.56 995.68 995.80 995.80 995.92 995.92 995.92 995.92 995.84 995.84 995.88 995.96 996.24 996.52 996.84 997.20
1018.96 1019.12 1019.08 1019.00 1018.92 1018.80 1018.52 1018.36 1018.12 1017.80 1017.60 1017.20 1016.80 1016.44 1016.00 1015.56 1015.20 1014.92 1014.56 1014.12 1013.64 1013.16 1012.72 1012.36 1011.92 1011.64 1011.20 1010.72 1010.12 1009.56 1008.92 1008.28 1007.88 1007.48 1006.96 1006.40 1005.84 1005.32 1004.84 1004.64 1004.40 1004.12 1003.64 1003.04 1002.56 1002.08 1001.48 1001.12 1000.84 1000.56 1000.12 999.08 998.04 997.60 996.92 996.48 996.32 996.24 996.32 996.36 996.12 996.08 996.12 996.12 996.12 996.12 996.16 996.08 995.96 996.00 995.96 996.20 996.68 997.00
1019.16 1019.32 1019.20 1019.20 1019.12 1019.08 1018.92 1018.64 1018.44 1018.08 1017.84 1017.56 1017.24 1016.76 1016.36 1016.12 1015.76 1015.20 1014.68 1014.16 1013.84 1013.56 1013.20 1012.92 1012.60 1012.28 1012.00 1011.60 1010.92 1010.36 1009.88 1009.52 1009.08 1008.52 1008.16 1007.60 1006.84 1006.48 1006.24 1005.96 1005.48 1005.00 1004.56 1003.76 1003.20 1002.80 1002.52 1002.32 1002.16 1002.12 1001.84 1001.64 1000.72 999.84 998.64 998.08 997.64 996.52 996.52 997.24 997.12 996.52 996.24 996.28 996.32 996.36 996.40 996.40 996.32 996.32 996.16 996.24 996.56 996.92
1019.36 1019.32 1019.40 1019.40 1019.36 1019.36 1019.04 1018.84 1018.68 1018.44 1018.20 1017.88 1017.56 1017.20 1016.72 1016.40 1015.96 1015.36 1014.84 1014.60 1014.48 1014.20 1013.84 1013.48 1013.08 1012.84 1012.60 1012.28 1011.92 1011.48 1010.76 1010.24 1009.80 1009.60 1009.24 1008.84 1008.36 1007.84 1007.16 1006.68 1006.12 1005.64 1005.04 1004.28 1003.76 1003.40 1003.08 1003.04 1003.12 1003.12 1002.88 1002.80 1002.32 1001.40 1001.08 1001.00 999.24 997.68 996.92 996.84 997.32 996.84 996.28 996.24 996.32 996.48 996.52 996.60 996.72 996.76 996.80 996.84 996.84 997.04
1019.44 1019.52 1019.52 1019.56 1019.48 1019.48 1019.28 1019.12 1018.84 1018.72 1018.44 1018.20 1018.00 1017.60 1017.20 1016.88 1016.44 1015.80 1015.36 1015.04 1014.92 1014.68 1014.48 1014.16 1013.84 1013.36 1013.04 1012.80 1012.48 1012.12 1011.56 1011.28 1011.12 1010.80 1010.40 1009.92 1009.28 1008.80 1008.24 1007.76 1007.20 1006.64 1005.92 1005.24 1004.60 1004.16 1003.88 1003.88 1003.84 1003.60 1003.28 1002.84 1002.20 1001.56 1001.24 1000.80 1000.04 998.76 997.84 996.60 996.32 996.40 996.24 996.20 996.24 996.40 996.64 996.72 996.76 996.84 997.00 997.00 997.12 997.40
1019.40 1019.28 1019.40 1019.56 1019.56 1019.48 1019.36 1019.20 1019.04 1018.84 1018.56 1018.36 1018.16 1017.76 1017.56 1017.32 1016.84 1016.08 1015.84 1015.56 1015.44 1015.04 1014.72 1014.48 1014.24 1013.96 1013.64 1013.32 1013.00 1012.64 1012.16 1011.80 1011.68 1011.32 1010.92 1010.52 1009.96 1009.44 1008.92 1008.48 1007.92 1007.48 1006.96 1006.28 1005.80 1005.12 1004.68 1004.76 1004.32 1003.64 1002.96 1002.16 1001.32 1000.96 1000.80 999.80 998.32 997.04 996.52 996.32 996.24 996.24 996.20 996.24 996.24 996.28 996.40 996.64 996.68 996.80 996.96 997.12 997.28 997.44
1019.32 1019.24 1019.36 1019.44 1019.40 1019.40 1019.40 1019.24 1019.04 1018.88 1018.60 1018.44 1018.20 1017.92 1017.72 1017.40 1017.08 1016.40 1016.28 1016.00 1015.72 1015.36 1015.08 1014.76 1014.56 1014.32 1014.04 1013.76 1013.48 1013.12 1012.76 1012.44 1012.28 1011.92 1011.52 1011.00 1010.40 1009.88 1009.48 1009.16 1008.76 1008.28 1007.84 1007.32 1006.92 1006.44 1005.72 1005.08 1004.24 1003.36 1002.44 1001.48 1000.56 999.92 999.44 999.44 999.12 998.12 997.28 996.76 996.52 996.44 996.40 996.36 996.36 996.40 996.40 996.44 996.60 996.80 997.16 997.36 997.40 997.52
1019.20 1019.20 1019.16 1019.28 1019.36 1019.32 1019.28 1019.20 1019.08 1018.92 1018.68 1018.52 1018.24 1018.04 1017.80 1017.40 1017.12 1016.68 1016.40 1016.08 1015.84 1015.56 1015.28 1015.08 1014.88 1014.68 1014.36 1014.08 1013.84 1013.60 1013.24 1012.84 1012.80 1012.60 1012.20 1011.76 1011.24 1010.68 1010.04 1009.80 1009.52 1009.24 1008.80 1008.20 1007.60 1006.88 1006.04 1005.24 1004.40 1003.64 1002.72 1001.72 1001.28 1000.92 1000.48 1000.08 999.56 998.88 997.96 997.32 996.92 996.76 996.68 996.60 996.56 996.56 996.56 996.68 996.76 996.72 996.72 996.80 996.96 997.28
1019.08 1019.04 1019.08 1019.20 1019.16 1019.12 1019.12 1019.08 1019.00 1018.88 1018.72 1018.52 1018.32 1018.16 1017.84 1017.52 1017.16 1016.92 1016.72 1016.40 1016.12 1015.84 1015.64 1015.36 1015.08 1014.84 1014.56 1014.28 1014.12 1013.84 1013.52 1013.28 1013.24 1012.96 1012.60 1012.32 1012.00 1011.52 1010.96 1010.44 1009.88 1009.44 1008.96 1008.40 1007.64 1006.84 1006.20 1005.68 1005.08 1004.36 1003.48 1002.64 1002.16 1001.64 1001.36 1000.72 1000.08 999.40 998.72 998.08 997.48 997.12 996.96 996.88 996.80 996.76 996.76 996.88 996.92 996.88 996.80 996.76 996.68 996.40
1019.00 1019.00 1018.96 1018.96 1019.00 1019.04 1019.04 1019.00 1018.96 1018.80 1018.68 1018.48 1018.28 1018.12 1017.92 1017.68 1017.40 1017.08 1016.84 1016.56 1016.28 1016.08 1015.80 1015.52 1015.24 1015.04 1014.80 1014.48 1014.20 1013.92 1013.68 1013.64 1013.52 1013.36 1013.04 1012.72 1012.36 1011.92 1011.48 1010.96 1010.32 1009.72 1009.32 1009.00 1008.40 1007.44 1006.84 1006.28 1005.52 1004.92 1004.32 1003.60 1003.00 1002.80 1002.32 1001.72 1000.84 1000.04 999.60 998.96 998.20 997.60 997.36 997.16 997.00 996.92 996.96 997.08 997.20 997.16 997.00 996.80 996.72 996.64
Thickness
5094 5092 5091 5092 5095 5097 5098 5099 5100 5100 5102 5106 5111 5119 5128 5137 5148 5159 5170 5186 5201 5211 5219 5228 5238 5246 5256 5266 5275 5284 5295 5305 5313 5322 5333 5344 5355 5365 5374 5384 5395 5406 5417 5426 5434 5441 5447 5455 5463 5471 5480 5488 5497 5505 5511 5518 5524 5532 5541 5547 5554 5562 5570 5579 5588 5597 5604 5609 5614 5618 5619 5618 5618 5617
5089 5087 5087 5088 5090 5091 5091 5091 5091 5090 5093 5098 5103 5111 5118 5125 5133 5143 5155 5173 5189 5201 5211 5221 5230 5238 5248 5258 5266 5277 5290 5300 5307 5316 5328 5339 5351 5362 5370 5380 5390 5401 5412 5421 5429 5437 5444 5451 5458 5466 5475 5483 5492 5500 5506 5513 5520 5527 5535 5541 5548 5556 5564 5574 5584 5595 5605 5611 5617 5622 5621 5617 5617 5616
5085 5083 5084 5084 5084 5084 5083 5083 5084 5084 5087 5092 5097 5103 5109 5115 5123 5131 5142 5162 5180 5190 5202 5214 5221 5229 5239 5250 5261 5274 5287 5296 5304 5312 5324 5336 5348 5357 5367 5377 5387 5397 5407 5417 5425 5433 5440 5447 5454 5461 5470 5478 5487 5495 5502 5508 5514 5522 5529 5535 5543 5551 5560 5569 5580 5593 5606 5619 5631 5633 5627 5622 5618 5615
5080 5079 5080 5080 5078 5077 5077 5077 5078 5079 5081 5085 5088 5094 5100 5105 5113 5121 5130 5150 5169 5180 5191 5205 5214 5221 5230 5244 5257 5270 5283 5294 5301 5309 5320 5332 5344 5354 5364 5375 5384 5392 5402 5412 5421 5429 5436 5444 5450 5457 5464 5472 5482 5489 5497 5503 5508 5516 5523 5530 5538 5546 5554 5564 5576 5590 5604 5620 5640 5644 5633 5626 5622 5615
5075 5076 5076 5075 5073 5071 5072 5073 5074 5075 5076 5079 5082 5086 5092 5098 5105 5112 5121 5137 5156 5172 5184 5195 5205 5213 5223 5238 5254 5265 5279 5290 5298 5306 5317 5329 5340 5351 5362 5373 5381 5388 5397 5407 5416 5425 5432 5439 5446 5452 5460 5467 5476 5484 5491 5498 5503 5510 5517 5523 5532 5540 5548 5558 5570 5585 5599 5610 5626 5635 5630 5625 5618 5610
5073 5074 5073 5071 5069 5068 5068 5068 5069 5070 5072 5074 5078 5082 5087 5093 5099 5106 5115 5128 5144 5162 5177 5186 5195 5205 5217 5234 5250 5259 5272 5285 5293 5303 5315 5327 5339 5349 5360 5370 5378 5386 5393 5403 5412 5420 5427 5435 5441 5448 5455 5462 5471 5478 5485 5492 5498 5505 5511 5518 5527 5534 5542 5553 5563 5579 5594 5599 5606 5615 5616 5612 5610 5604
5072 5072 5071 5068 5066 5065 5064 5064 5065 5067 5069 5072 5075 5079 5084 5090 5097 5103 5111 5122 5134 5151 5168 5177 5187 5198 5213 5230 5245 5255 5267 5278 5289 5300 5314 5326 5338 5348 5358 5367 5376 5384 5390 5399 5408 5416 5423 5430 5437 5444 5451 5458 5464 5471 5479 5487 5493 5499 5506 5512 5521 5528 5536 5545 5556 5569 5583 5589 5592 5599 5600 5597 5600 5600
5071 5070 5068 5066 5064 5062 5061 5061 5063 5065 5067 5071 5074 5079 5083 5088 5095 5102 5109 5119 5129 5143 5159 5171 5180 5191 5208 5226 5240 5252 5264 5276 5287 5300 5314 5326 5336 5346 5355 5364 5372 5380 5386 5395 5404 5412 5419 5426 5433 5440 5447 5453 5459 5465 5473 5480 5487 5493 5500 5506 5514 5522 5529 5537 5547 5557 5569 5576 5580 5588 5590 5588 5589 5591
5069 5068 5066 5064 5061 5060 5059 5059 5061 5064 5067 5072 5075 5080 5084 5089 5096 5102 5109 5117 5126 5137 5150 5164 5176 5187 5203 5223 5239 5250 5262 5274 5286 5300 5314 5324 5334 5343 5352 5360 5368 5375 5382 5390 5399 5408 5414 5421 5429 5436 5443 5448 5453 5460 5467 5474 5481 5487 5494 5500 5507 5515 5521 5529 5538 5547 5556 5564 5569 5575 5579 5580 5581 5582
5067 5065 5064 5061 5059 5058 5057 5058 5061 5065 5070 5074 5078 5082 5087 5091 5096 5101 5107 5114 5122 5133 5144 5157 5171 5185 5200 5220 5238 5251 5262 5273 5287 5301 5313 5323 5331 5340 5348 5357 5365 5371 5379 5387 5395 5403 5410 5417 5424 5432 5438 5444 5449 5455 5461 5468 5475 5482 5488 5495 5501 5508 5515 5521 5531 5539 5547 5555 5561 5566 5569 5572 5576 5579
5065 5063 5061 5059 5058 5056 5057 5059 5063 5068 5073 5077 5082 5086 5089 5092 5095 5100 5107 5113 5120 5130 5141 5153 5168 5183 5199 5217 5235 5252 5264 5275 5288 5302 5313 5322 5330 5338 5346 5354 5361 5367 5375 5382 5390 5398 5405 5411 5418 5426 5433 5439 5444 5450 5456 5463 5470 5476 5482 5489 5496 5502 5508 5515 5523 5531 5539 5547 5553 5559 5564 5568 5573 5575
5064 5062 5059 5058 5057 5057 5058 5062 5067 5071 5076 5081 5086 5089 5090 5093 5097 5102 5107 5113 5118 5128 5139 5152 5166 5180 5197 5214 5231 5250 5266 5279 5292 5304 5312 5322 5330 5336 5342 5350 5357 5364 5371 5378 5385 5393 5399 5406 5413 5420 5427 5434 5440 5445 5451 5458 5465 5471 5477 5483 5489 5496 5502 5508 5516 5523 5530 5538 5546 5553 5558 5561 5565 5569
5063 5060 5058 5057 5057 5058 5060 5065 5070 5076 5081 5085 5089 5091 5092 5095 5098 5103 5107 5111 5118 5127 5137 5150 5163 5176 5193 5211 5228 5247 5266 5282 5296 5305 5312 5320 5328 5333 5339 5346 5354 5361 5367 5373 5380 5388 5394 5401 5408 5414 5422 5429 5436 5441 5446 5453 5460 5466 5472 5477 5484 5490 5496 5502 5509 5516 5523 5530 5539 5548 5554 5555 5558 5562
5062 5060 5058 5056 5057 5059 5062 5067 5073 5079 5085 5088 5090 5092 5094 5097 5099 5102 5107 5111 5117 5125 5135 5148 5160 5172 5189 5208 5226 5246 5266 5281 5293 5304 5312 5319 5324 5329 5335 5343 5351 5359 5365 5371 5377 5384 5390 5396 5403 5410 5418 5425 5430 5436 5442 5449 5455 5461 5467 5472 5477 5484 5490 5496 5502 5509 5516 5522 5531 5542 5549 5551 5553 5556
5063 5060 5057 5056 5057 5059 5063 5069 5076 5083 5087 5090 5092 5095 5097 5099 5101 5102 5106 5111 5116 5124 5134 5146 5158 5170 5188 5207 5226 5244 5260 5273 5284 5298 5309 5317 5322 5327 5334 5342 5350 5357 5363 5368 5374 5381 5386 5392 5399 5405 5413 5420 5426 5432 5439 5444 5450 5456 5461 5466 5472 5477 5483 5489 5496 5502 5509 5515 5523 5534 5543 5547 5549 5551
5062 5060 5058 5057 5058 5060 5065 5072 5080 5085 5089 5091 5094 5097 5099 5101 5103 5105 5107 5111 5116 5124 5134 5146 5157 5169 5186 5205 5222 5236 5249 5261 5274 5290 5305 5314 5321 5327 5333 5342 5350 5356 5361 5366 5370 5376 5382 5388 5395 5401 5408 5415 5422 5428 5434 5439 5445 5451 5456 5460 5465 5472 5477 5483 5489 5495 5502 5509 5515 5524 5535 5543 5547 5548
5061 5059 5058 5057 5059 5063 5068 5075 5083 5089 5090 5092 5096 5099 5101 5104 5106 5108 5109 5112 5117 5125 5136 5147 5157 5168 5182 5199 5214 5227 5241 5254 5268 5287 5304 5313 5320 5326 5332 5340 5348 5353 5358 5363 5368 5372 5378 5384 5391 5397 5404 5410 5417 5423 5429 5435 5441 5446 5451 5455 5460 5466 5472 5477 5483 5489 5495 5502 5509 5516 5526 5536 5542 5544
5060 5059 5058 5058 5061 5066 5071 5078 5087 5092 5092 5093 5097 5100 5103 5107 5109 5110 5111 5115 5121 5128 5138 5148 5158 5170 5181 5192 5206 5222 5238 5254 5269 5286 5303 5313 5319 5325 5330 5336 5343 5348 5354 5361 5366 5371 5375 5380 5388 5393 5398 5405 5411 5417 5424 5431 5437 5442 5446 5451 5455 5460 5466 5471 5477 5483 5488 5494 5501 5508 5517 5527 5535 5539
5060 5059 5058 5059 5062 5068 5074 5082 5090 5095 5094 5094 5098 5102 5105 5109 5112 5112 5114 5118 5125 5133 5140 5149 5159 5170 5180 5192 5206 5224 5241 5256 5269 5284 5300 5311 5318 5323 5328 5333 5339 5344 5351 5358 5364 5369 5373 5377 5384 5389 5393 5400 5406 5412 5419 5425 5432 5437 5441 5446 5450 5455 5460 5465 5471 5477 5482 5487 5494 5500 5508 5519 5529 5535
5061 5060 5060 5061 5064 5070 5077 5084 5092 5096 5095 5095 5098 5103 5107 5111 5114 5115 5116 5121 5129 5138 5147 5155 5164 5174 5185 5198 5212 5226 5240 5255 5269 5287 5301 5307 5313 5321 5328 5332 5337 5341 5347 5353 5360 5367 5370 5374 5380 5384 5387 5395 5401 5406 5413 5420 5426 5432 5437 5441 5446 5449 5455 5460 5465 5471 5476 5480 5486 5492 5500 5511 5524 5531
5061 5061 5062 5063 5066 5072 5079 5085 5092 5096 5096 5095 5099 5104 5107 5111 5115 5117 5120 5125 5132 5142 5152 5162 5173 5183 5194 5205 5217 5229 5242 5255 5270 5286 5295 5296 5304 5319 5328 5332 5335 5339 5344 5349 5357 5364 5367 5370 5377 5380 5382 5389 5396 5400 5407 5414 5421 5427 5432 5436 5440 5445 5449 5455 5460 5465 5470 5473 5479 5485 5492 5502 5515 5525
5062 5062 5064 5065 5067 5073 5079 5084 5090 5096 5097 5095 5099 5104 5108 5112 5116 5118 5123 5128 5136 5146 5156 5167 5178 5188 5198 5209 5220 5232 5243 5255 5267 5276 5282 5285 5297 5314 5324 5330 5333 5336 5340 5345 5352 5361 5364 5367 5372 5375 5377 5382 5389 5395 5402 5409 5415 5422 5427 5431 5435 5440 5445 5450 5454 5459 5464 5468 5473 5479 5485 5494 5505 5516
5062 5062 5064 5066 5069 5073 5079 5083 5088 5094 5096 5096 5099 5104 5108 5112 5116 5117 5121 5128 5137 5146 5157 5168 5177 5187 5197 5207 5218 5229 5239 5250 5260 5268 5273 5280 5290 5301 5312 5323 5330 5333 5336 5342 5348 5357 5361 5364 5369 5374 5376 5380 5384 5389 5397 5404 5410 5417 5422 5426 5430 5435 5440 5445 5449 5454 5458 5463 5469 5475 5481 5488 5495 5506
5062 5063 5065 5066 5070 5074 5078 5082 5086 5091 5095 5095 5098 5103 5108 5112 5115 5116 5120 5127 5134 5142 5152 5163 5172 5181 5191 5201 5211 5222 5235 5246 5256 5262 5267 5275 5283 5291 5300 5312 5323 5328 5332 5337 5345 5353 5359 5362 5366 5371 5377 5381 5384 5386 5391 5398 5404 5411 5417 5422 5425 5429 5434 5439 5443 5448 5453 5458 5465 5470 5477 5483 5489 5498
5061 5062 5064 5066 5070 5073 5076 5079 5083 5088 5093 5094 5097 5102 5105 5109 5113 5115 5120 5127 5135 5142 5151 5160 5169 5177 5187 5198 5208 5219 5231 5241 5250 5257 5264 5271 5278 5286 5292 5301 5312 5321 5327 5333 5341 5349 5355 5359 5363 5367 5373 5379 5382 5384 5387 5392 5398 5405 5411 5417 5420 5424 5428 5433 5437 5442 5447 5453 5459 5465 5472 5479 5484 5490
5061 5062 5063 5066 5069 5072 5074 5076 5079 5085 5090 5093 5096 5100 5103 5107 5112 5115 5119 5126 5134 5143 5151 5158 5165 5174 5183 5193 5204 5214 5224 5234 5243 5252 5260 5267 5275 5283 5290 5297 5305 5314 5321 5328 5337 5345 5351 5356 5359 5364 5369 5375 5378 5381 5385 5388 5392 5398 5405 5411 5415 5419 5423 5427 5431 5436 5442 5447 5453 5459 5465 5472 5478 5483
5063 5062 5064 5066 5068 5070 5072 5073 5076 5081 5086 5089 5094 5098 5101 5105 5110 5114 5119 5126 5133 5141 5149 5156 5162 5169 5175 5184 5195 5206 5216 5226 5236 5245 5253 5263 5271 5280 5289 5296 5302 5308 5316 5324 5332 5340 5346 5350 5354 5360 5366 5371 5374 5378 5382 5385 5389 5394 5399 5404 5409 5413 5417 5422 5427 5431 5436 5441 5446 5451 5457 5463 5470 5475
5064 5063 5064 5066 5067 5068 5070 5070 5071 5076 5082 5087 5091 5095 5098 5102 5107 5113 5119 5124 5131 5139 5147 5152 5157 5161 5167 5176 5186 5196 5207 5219 5230 5240 5248 5258 5267 5276 5285 5292 5298 5303 5311 5319 5326 5333 5338 5344 5348 5354 5360 5367 5372 5376 5379 5382 5385 5390 5394 5398 5403 5407 5412 5416 5421 5426 5431 5435 5439 5444 5450 5455 5462 5468
5067 5065 5065 5065 5065 5066 5067 5067 5068 5071 5077 5083 5087 5090 5094 5098 5103 5109 5114 5119 5127 5134 5139 5143 5147 5153 5161 5170 5179 5189 5201 5214 5226 5236 5245 5255 5265 5273 5281 5288 5293 5298 5303 5310 5317 5324 5331 5338 5343 5349 5355 5361 5367 5372 5375 5378 5380 5384 5389 5393 5397 5401 5405 5410 5415 5420 5425 5430 5434 5439 5445 5448 5454 5461
5069 5066 5064 5063 5062 5063 5065 5065 5065 5068 5072 5077 5082 5087 5091 5094 5099 5104 5108 5113 5119 5124 5129 5134 5140 5146 5156 5165 5175 5187 5198 5209 5218 5226 5235 5246 5256 5265 5273 5281 5287 5292 5297 5302 5308 5315 5323 5330 5337 5345 5350 5355 5360 5365 5370 5374 5376 5378 5383 5388 5391 5395 5399 5404 5409 5414 5419 5424 5429 5434 5438 5441 5446 5453
5069 5067 5064 5062 5060 5060 5062 5063 5063 5065 5068 5073 5078 5083 5087 5090 5094 5098 5102 5106 5110 5115 5121 5128 5135 5142 5152 5163 5174 5184 5193 5201 5208 5215 5223 5233 5243 5253 5263 5272 5276 5282 5290 5297 5302 5308 5315 5323 5331 5339 5346 5350 5354 5358 5363 5369 5373 5374 5377 5381 5386 5391 5395 5399 5403 5408 5412 5418 5422 5426 5431 5434 5438 5444
5070 5067 5065 5063 5061 5061 5062 5063 5064 5065 5068 5070 5074 5078 5082 5085 5089 5094 5098 5102 5107 5111 5117 5123 5131 5140 5150 5160 5169 5178 5186 5194 5199 5207 5215 5223 5230 5242 5253 5259 5261 5268 5279 5289 5296 5303 5309 5316 5324 5332 5339 5345 5349 5353 5357 5362 5366 5369 5372 5376 5380 5385 5389 5392 5397 5401 5405 5411 5415 5420 5424 5429 5431 5437
5073 5070 5067 5064 5063 5062 5062 5063 5064 5065 5066 5068 5070 5074 5078 5082 5085 5090 5095 5099 5103 5108 5113 5120 5127 5135 5145 5154 5162 5170 5178 5185 5191 5198 5206 5214 5222 5232 5241 5245 5247 5253 5262 5272 5281 5291 5300 5309 5318 5326 5334 5339 5343 5347 5352 5356 5358 5362 5366 5370 5374 5378 5381 5386 5391 5395 5400 5406 5410 5413 5417 5422 5426 5430
5075 5072 5068 5064 5062 5059 5059 5059 5060 5061 5062 5064 5067 5069 5073 5076 5081 5086 5090 5093 5097 5102 5107 5113 5120 5128 5137 5146 5154 5161 5169 5175 5182 5189 5196 5204 5213 5221 5228 5233 5236 5241 5249 5257 5267 5277 5287 5297 5308 5320 5330 5335 5337 5340 5345 5348 5351 5354 5358 5363 5367 5371 5375 5379 5384 5389 5395 5400 5405 5408 5410 5413 5418 5423
5076 5071 5067 5064 5061 5058 5056 5055 5055 5056 5057 5060 5062 5065 5068 5071 5074 5079 5084 5087 5091 5096 5102 5108 5114 5121 5129 5137 5144 5152 5158 5165 5172 5180 5188 5195 5203 5210 5215 5221 5225 5230 5238 5246 5255 5264 5273 5282 5292 5305 5319 5329 5334 5336 5338 5340 5343 5347 5351 5355 5360 5364 5368 5373 5377 5383 5389 5394 5399 5402 5405 5407 5410 5415
5077 5070 5066 5064 5060 5057 5056 5054 5052 5053 5054 5056 5058 5061 5065 5068 5069 5072 5076 5080 5084 5091 5097 5103 5109 5115 5121 5127 5134 5142 5150 5156 5164 5171 5178 5185 5192 5199 5205 5211 5215 5220 5228 5235 5244 5252 5260 5268 5275 5283 5297 5311 5322 5327 5330 5333 5336 5340 5344 5349 5353 5357 5360 5365 5371 5376 5381 5387 5393 5397 5402 5404 5406 5409
5078 5071 5066 5064 5060 5057 5055 5053 5051 5051 5052 5053 5055 5057 5060 5063 5065 5067 5070 5074 5080 5086 5092 5097 5102 5107 5112 5119 5126 5133 5141 5148 5155 5161 5168 5175 5183 5190 5196 5200 5206 5211 5218 5226 5234 5241 5248 5255 5261 5266 5274 5286 5297 5307 5315 5321 5326 5333 5336 5339 5344 5350 5354 5358 5363 5368 5373 5378 5385 5391 5396 5400 5401 5403
5079 5073 5068 5064 5060 5057 5055 5053 5052 5051 5051 5051 5053 5055 5057 5059 5062 5065 5069 5073 5077 5081 5087 5091 5096 5101 5105 5112 5118 5125 5132 5138 5145 5151 5158 5164 5172 5179 5185 5190 5196 5202 5209 5217 5225 5232 5237 5243 5248 5252 5257 5264 5273 5284 5294 5301 5312 5324 5329 5329 5332 5341 5349 5352 5356 5361 5365 5370 5375 5381 5387 5392 5394 5396
5081 5075 5070 5065 5061 5057 5055 5054 5052 5051 5050 5050 5050 5053 5055 5057 5060 5064 5068 5070 5072 5076 5081 5086 5091 5095 5100 5105 5110 5116 5123 5130 5136 5142 5147 5152 5160 5167 5173 5180 5187 5193 5201 5209 5217 5223 5229 5232 5236 5241 5246 5250 5258 5268 5274 5281 5294 5309 5320 5323 5327 5334 5341 5347 5350 5353 5357 5362 5366 5370 5375 5380 5384 5387
5083 5077 5072 5067 5062 5059 5057 5055 5053 5051 5051 5050 5049 5050 5052 5054 5057 5062 5065 5067 5069 5072 5076 5080 5085 5090 5094 5099 5104 5110 5116 5121 5126 5131 5136 5142 5149 5156 5162 5170 5177 5184 5191 5199 5206 5213 5219 5223 5226 5232 5238 5245 5253 5261 5266 5273 5286 5300 5313 5321 5326 5331 5335 5340 5344 5347 5350 5354 5358 5362 5366 5370 5374 5378
5087 5081 5074 5069 5065 5061 5058 5056 5054 5052 5051 5050 5049 5050 5050 5051 5054 5059 5061 5063 5065 5069 5072 5076 5080 5084 5089 5093 5097 5103 5110 5115 5118 5124 5129 5135 5141 5148 5154 5161 5167 5174 5181 5189 5195 5202 5208 5212 5219 5227 5236 5245 5254 5263 5269 5278 5290 5301 5311 5319 5323 5327 5331 5335 5339 5342 5345 5348 5352 5355 5358 5362 5365 5369
5089 5084 5078 5073 5068 5064 5060 5057 5055 5054 5052 5051 5050 5050 5050 5051 5053 5056 5058 5060 5063 5067 5070 5072 5075 5079 5083 5087 5091 5096 5102 5107 5111 5116 5122 5128 5134 5141 5147 5153 5158 5164 5170 5177 5183 5189 5197 5205 5214 5224 5234 5244 5253 5261 5268 5276 5284 5294 5304 5311 5316 5321 5325 5329 5333 5337 5340 5343 5347 5349 5352 5355 5357 5361
5092 5087 5082 5076 5071 5066 5063 5060 5057 5055 5054 5052 5051 5051 5051 5052 5053 5055 5057 5059 5061 5064 5067 5069 5072 5075 5078 5082 5086 5090 5095 5099 5103 5108 5113 5119 5125 5132 5138 5143 5149 5154 5160 5167 5173 5181 5190 5199 5208 5217 5227 5237 5245 5252 5258 5265 5273 5283 5293 5302 5308 5314 5318 5322 5326 5330 5333 5336 5340 5343 5347 5351 5354 5358
5095 5090 5085 5080 5075 5070 5066 5062 5059 5057 5055 5054 5053 5052 5052 5052 5053 5054 5055 5056 5058 5061 5063 5066 5069 5072 5074 5078 5081 5085 5089 5093 5096 5100 5105 5110 5115 5121 5128 5134 5140 5146 5152 5159 5167 5175 5183 5190 5198 5206 5216 5226 5233 5239 5245 5253 5263 5273 5281 5290 5298 5305 5310 5315 5319 5323 5326 5329 5332 5336 5341 5346 5351 5357
5097 5092 5088 5083 5078 5073 5068 5065 5061 5058 5056 5055 5054 5054 5053 5053 5053 5054 5054 5055 5057 5058 5060 5063 5065 5068 5071 5074 5077 5081 5084 5087 5089 5093 5098 5103 5107 5113 5119 5125 5132 5139 5144 5150 5157 5165 5173 5181 5189 5196 5204 5213 5221 5227 5233 5241 5252 5261 5268 5277 5287 5295 5301 5306 5311 5315 5319 5321 5323 5328 5333 5338 5344 5349